Location: Brookview Estates
(36.0476°N, 86.6931°W)
Time: 03:06:15
(UTC+00:00)

SJ-6F - Pass Details

Date: 30 March 2020
Orbit: 572 x 593 km, 97.7° (Epoch: 26 May)

Event Time Altitude Azimuth Distance (km) Brightness Sun altitude
Rises 10:18:16 0° 8° (N) 2,803 8.3 -16.1°
Reaches altitude 10° 10:20:26 10° 5° (N) 1,903 7.3 -15.6°
Maximum altitude 10:24:30 64° 285° (WNW) 648 4.4 -14.8°
Drops below altitude 10° 10:28:36 10° 203° (SSW) 1,902 6.7 -14.1°
Enters shadow 10:28:44 - 203° (SSW) 1,957 6.8 -14.0°
